Wetterdaten: Montag, 01.06.2020
Datum Zeit Temp. Auen Feucht Auen Luftdruck Regen Richtung Richtung Windben
01.06.2020 00:00 9,7 C 88 % 1022,7 hPa 0,2 mm W-NW 293 0,0 km/h (0 Bft)
01.06.2020 00:05 9,7 C 88 % 1022,6 hPa 0,0 mm W-NW 293 0,0 km/h (0 Bft)
01.06.2020 00:10 9,7 C 89 % 1022,6 hPa 0,0 mm W-NW 293 0,0 km/h (0 Bft)
01.06.2020 00:15 9,7 C 89 % 1022,6 hPa 0,0 mm W-NW 293 0,0 km/h (0 Bft)
01.06.2020 00:20 9,7 C 89 % 1022,7 hPa 0,0 mm W-NW 293 0,0 km/h (0 Bft)
01.06.2020 00:25 9,7 C 89 % 1022,6 hPa 0,0 mm W-NW 293 0,0 km/h (0 Bft)
01.06.2020 00:30 9,7 C 89 % 1022,6 hPa 0,0 mm W-NW 293 0,0 km/h (0 Bft)
01.06.2020 00:35 9,7 C 89 % 1022,7 hPa 0,0 mm W-NW 293 0,0 km/h (0 Bft)
01.06.2020 00:40 9,6 C 89 % 1022,6 hPa 0,0 mm W-NW 293 0,0 km/h (0 Bft)
01.06.2020 00:45 9,7 C 89 % 1022,7 hPa 0,0 mm W-NW 293 0,0 km/h (0 Bft)
01.06.2020 00:50 9,7 C 89 % 1022,7 hPa 0,0 mm N-NO 24 3,2 km/h (1 Bft)
01.06.2020 00:55 9,7 C 90 % 1022,8 hPa 0,0 mm N-NO 28 4,8 km/h (1 Bft)
01.06.2020 01:00 9,6 C 90 % 1022,8 hPa 0,0 mm N-NO 28 3,2 km/h (1 Bft)
01.06.2020 01:05 9,6 C 90 % 1022,6 hPa 0,0 mm N-NO 28 0,0 km/h (0 Bft)
01.06.2020 01:10 9,6 C 90 % 1022,6 hPa 0,0 mm N-NO 28 0,0 km/h (0 Bft)
01.06.2020 01:15 9,6 C 90 % 1022,6 hPa 0,0 mm N-NO 28 0,0 km/h (0 Bft)
01.06.2020 01:20 9,5 C 90 % 1022,5 hPa 0,0 mm N-NO 28 0,0 km/h (0 Bft)
01.06.2020 01:25 9,4 C 90 % 1022,5 hPa 0,0 mm N-NO 28 0,0 km/h (0 Bft)
01.06.2020 01:30 9,4 C 90 % 1022,4 hPa 0,0 mm N-NO 28 0,0 km/h (0 Bft)
01.06.2020 01:35 9,4 C 90 % 1022,4 hPa 0,0 mm N-NO 28 0,0 km/h (0 Bft)
01.06.2020 01:40 9,4 C 90 % 1022,4 hPa 0,0 mm N-NO 28 0,0 km/h (0 Bft)
01.06.2020 01:45 9,4 C 90 % 1022,3 hPa 0,0 mm N-NO 27 0,0 km/h (0 Bft)
01.06.2020 01:50 9,4 C 90 % 1022,2 hPa 0,0 mm N-NO 27 3,2 km/h (1 Bft)
01.06.2020 01:55 9,4 C 90 % 1022,2 hPa 0,0 mm N-NO 27 1,6 km/h (1 Bft)
01.06.2020 02:00 9,5 C 91 % 1022,2 hPa 0,0 mm N-NO 27 3,2 km/h (1 Bft)
01.06.2020 02:05 9,5 C 91 % 1022,1 hPa 0,0 mm N-NO 27 0,0 km/h (0 Bft)
01.06.2020 02:10 9,5 C 91 % 1022,1 hPa 0,0 mm N-NO 27 0,0 km/h (0 Bft)
01.06.2020 02:15 9,5 C 91 % 1022,0 hPa 0,0 mm N-NO 27 0,0 km/h (0 Bft)
01.06.2020 02:20 9,4 C 91 % 1022,0 hPa 0,0 mm N-NO 27 0,0 km/h (0 Bft)
01.06.2020 02:25 9,4 C 91 % 1022,0 hPa 0,0 mm N-NO 27 0,0 km/h (0 Bft)
01.06.2020 02:30 9,4 C 91 % 1022,0 hPa 0,0 mm N-NO 27 0,0 km/h (0 Bft)
01.06.2020 02:35 9,4 C 91 % 1021,9 hPa 0,0 mm N-NO 27 0,0 km/h (0 Bft)
01.06.2020 02:40 9,5 C 91 % 1021,9 hPa 0,0 mm N-NO 27 1,6 km/h (1 Bft)
01.06.2020 02:45 9,5 C 91 % 1021,8 hPa 0,0 mm N-NO 27 0,0 km/h (0 Bft)
01.06.2020 02:50 9,4 C 91 % 1021,8 hPa 0,0 mm N-NO 27 0,0 km/h (0 Bft)
01.06.2020 02:55 9,5 C 91 % 1021,9 hPa 0,0 mm N-NO 27 0,0 km/h (0 Bft)
01.06.2020 03:00 9,5 C 91 % 1021,9 hPa 0,0 mm N-NO 27 0,0 km/h (0 Bft)
01.06.2020 03:05 9,4 C 91 % 1021,7 hPa 0,0 mm N-NO 27 0,0 km/h (0 Bft)
01.06.2020 03:10 9,4 C 91 % 1021,7 hPa 0,0 mm N-NO 27 0,0 km/h (0 Bft)
01.06.2020 03:15 9,4 C 91 % 1021,8 hPa 0,0 mm N-NO 27 0,0 km/h (0 Bft)
01.06.2020 03:20 9,4 C 91 % 1021,8 hPa 0,0 mm N-NO 27 0,0 km/h (0 Bft)
01.06.2020 03:25 9,4 C 91 % 1021,7 hPa 0,0 mm N-NO 27 0,0 km/h (0 Bft)
01.06.2020 03:30 9,4 C 91 % 1021,7 hPa 0,0 mm N-NO 27 0,0 km/h (0 Bft)
01.06.2020 03:35 9,4 C 91 % 1021,5 hPa 0,0 mm N-NO 27 0,0 km/h (0 Bft)
01.06.2020 03:40 9,4 C 91 % 1021,5 hPa 0,0 mm N-NO 27 0,0 km/h (0 Bft)
01.06.2020 03:45 9,3 C 91 % 1021,5 hPa 0,0 mm N-NO 27 0,0 km/h (0 Bft)
01.06.2020 03:50 9,3 C 91 % 1021,5 hPa 0,0 mm N-NO 27 0,0 km/h (0 Bft)
01.06.2020 03:55 9,3 C 91 % 1021,4 hPa 0,0 mm N-NO 27 0,0 km/h (0 Bft)
01.06.2020 04:00 9,4 C 91 % 1021,4 hPa 0,0 mm N-NO 27 0,0 km/h (0 Bft)
01.06.2020 04:05 9,3 C 91 % 1021,4 hPa 0,0 mm N-NO 27 0,0 km/h (0 Bft)
01.06.2020 04:10 9,3 C 91 % 1021,4 hPa 0,0 mm N-NO 27 0,0 km/h (0 Bft)
01.06.2020 04:15 9,3 C 91 % 1021,4 hPa 0,0 mm N-NO 27 0,0 km/h (0 Bft)
01.06.2020 04:20 9,3 C 91 % 1021,4 hPa 0,0 mm N-NO 27 0,0 km/h (0 Bft)
01.06.2020 04:25 9,3 C 91 % 1021,3 hPa 0,0 mm N-NO 27 0,0 km/h (0 Bft)
01.06.2020 04:30 9,4 C 92 % 1021,3 hPa 0,0 mm N-NO 27 0,0 km/h (0 Bft)
01.06.2020 04:35 9,4 C 92 % 1021,3 hPa 0,0 mm N-NO 27 0,0 km/h (0 Bft)
01.06.2020 04:40 9,4 C 92 % 1021,3 hPa 0,0 mm N-NO 27 0,0 km/h (0 Bft)
01.06.2020 04:45 9,4 C 92 % 1021,3 hPa 0,0 mm N-NO 27 0,0 km/h (0 Bft)
01.06.2020 04:50 9,4 C 92 % 1021,2 hPa 0,0 mm N-NO 27 0,0 km/h (0 Bft)
01.06.2020 04:55 9,4 C 92 % 1021,2 hPa 0,0 mm N-NO 27 0,0 km/h (0 Bft)
01.06.2020 05:00 9,4 C 92 % 1021,3 hPa 0,0 mm N-NO 27 0,0 km/h (0 Bft)
01.06.2020 05:05 9,4 C 92 % 1021,2 hPa 0,0 mm N-NO 27 0,0 km/h (0 Bft)
01.06.2020 05:10 9,4 C 92 % 1021,3 hPa 0,0 mm N-NO 27 0,0 km/h (0 Bft)
01.06.2020 05:15 9,3 C 92 % 1021,2 hPa 0,0 mm N-NO 27 0,0 km/h (0 Bft)
01.06.2020 05:20 9,4 C 92 % 1021,3 hPa 0,0 mm N-NO 27 0,0 km/h (0 Bft)
01.06.2020 05:25 9,4 C 92 % 1021,3 hPa 0,0 mm N-NO 27 0,0 km/h (0 Bft)
01.06.2020 05:30 9,3 C 92 % 1021,3 hPa 0,0 mm N-NO 27 0,0 km/h (0 Bft)
01.06.2020 05:35 9,3 C 92 % 1021,4 hPa 0,0 mm N-NO 27 0,0 km/h (0 Bft)
01.06.2020 05:40 9,3 C 92 % 1021,4 hPa 0,0 mm N-NO 27 0,0 km/h (0 Bft)
01.06.2020 05:45 9,3 C 92 % 1021,3 hPa 0,0 mm N-NO 27 0,0 km/h (0 Bft)
01.06.2020 05:50 9,3 C 92 % 1021,4 hPa 0,0 mm N-NO 27 0,0 km/h (0 Bft)
01.06.2020 05:55 9,3 C 92 % 1021,4 hPa 0,0 mm N-NO 27 0,0 km/h (0 Bft)
01.06.2020 06:00 9,3 C 92 % 1021,4 hPa 0,0 mm N-NO 27 0,0 km/h (0 Bft)
01.06.2020 06:05 9,4 C 92 % 1021,5 hPa 0,0 mm N-NO 27 0,0 km/h (0 Bft)
01.06.2020 06:10 9,4 C 92 % 1021,5 hPa 0,0 mm N-NO 27 0,0 km/h (0 Bft)
01.06.2020 06:15 9,4 C 92 % 1021,5 hPa 0,0 mm N-NO 27 0,0 km/h (0 Bft)
01.06.2020 06:20 9,4 C 92 % 1021,6 hPa 0,0 mm N-NO 27 0,0 km/h (0 Bft)
01.06.2020 06:25 9,4 C 92 % 1021,6 hPa 0,0 mm N-NO 27 0,0 km/h (0 Bft)
01.06.2020 06:30 9,4 C 92 % 1021,7 hPa 0,0 mm N-NO 27 0,0 km/h (0 Bft)
01.06.2020 06:35 9,4 C 92 % 1021,7 hPa 0,0 mm N-NO 27 0,0 km/h (0 Bft)
01.06.2020 06:40 9,6 C 92 % 1021,6 hPa 0,0 mm N-NO 27 0,0 km/h (0 Bft)
01.06.2020 06:45 9,6 C 92 % 1021,7 hPa 0,0 mm N-NO 27 0,0 km/h (0 Bft)
01.06.2020 06:50 9,6 C 92 % 1021,7 hPa 0,0 mm N-NO 27 0,0 km/h (0 Bft)
01.06.2020 06:55 9,6 C 92 % 1021,7 hPa 0,0 mm N-NO 27 0,0 km/h (0 Bft)
01.06.2020 07:00 9,7 C 92 % 1021,7 hPa 0,0 mm N-NO 27 0,0 km/h (0 Bft)
01.06.2020 07:05 9,7 C 92 % 1021,8 hPa 0,0 mm N-NO 27 0,0 km/h (0 Bft)
01.06.2020 07:10 9,8 C 92 % 1021,8 hPa 0,0 mm N-NO 27 1,6 km/h (1 Bft)
01.06.2020 07:15 9,8 C 92 % 1021,8 hPa 0,0 mm O-NO 69 3,2 km/h (1 Bft)
01.06.2020 07:20 10,0 C 92 % 1021,8 hPa 0,0 mm O 88 3,2 km/h (1 Bft)
01.06.2020 07:25 10,2 C 92 % 1021,8 hPa 0,0 mm O 92 4,8 km/h (1 Bft)
01.06.2020 07:30 10,3 C 92 % 1021,8 hPa 0,0 mm O 92 3,2 km/h (1 Bft)
01.06.2020 07:35 10,4 C 92 % 1021,9 hPa 0,0 mm O 92 3,2 km/h (1 Bft)
01.06.2020 07:40 10,4 C 92 % 1021,8 hPa 0,0 mm O 92 1,6 km/h (1 Bft)
01.06.2020 07:45 10,8 C 91 % 1021,8 hPa 0,0 mm O 92 1,6 km/h (1 Bft)
01.06.2020 07:50 10,7 C 91 % 1021,8 hPa 0,0 mm O 92 1,6 km/h (1 Bft)
01.06.2020 07:55 11,0 C 91 % 1021,8 hPa 0,0 mm O 92 0,0 km/h (0 Bft)
01.06.2020 08:00 11,2 C 91 % 1021,8 hPa 0,0 mm O-SO 103 4,8 km/h (1 Bft)
01.06.2020 08:05 11,5 C 91 % 1021,8 hPa 0,0 mm O-SO 121 6,4 km/h (2 Bft)
01.06.2020 08:10 11,7 C 89 % 1021,8 hPa 0,0 mm O-SO 121 4,8 km/h (1 Bft)
01.06.2020 08:15 11,7 C 88 % 1021,8 hPa 0,0 mm O-SO 121 4,8 km/h (1 Bft)
01.06.2020 08:20 12,0 C 87 % 1021,9 hPa 0,0 mm O-SO 121 4,8 km/h (1 Bft)
01.06.2020 08:25 11,9 C 85 % 1021,8 hPa 0,0 mm O-SO 121 4,8 km/h (1 Bft)
01.06.2020 08:30 12,2 C 83 % 1021,8 hPa 0,0 mm O-SO 121 3,2 km/h (1 Bft)
01.06.2020 08:35 12,6 C 82 % 1021,8 hPa 0,0 mm O-SO 121 3,2 km/h (1 Bft)
01.06.2020 08:40 12,6 C 82 % 1021,8 hPa 0,0 mm O-SO 121 3,2 km/h (1 Bft)
01.06.2020 08:45 12,8 C 82 % 1021,8 hPa 0,0 mm O-SO 121 1,6 km/h (1 Bft)
01.06.2020 08:50 13,1 C 81 % 1021,8 hPa 0,0 mm O-SO 121 3,2 km/h (1 Bft)
01.06.2020 08:55 13,6 C 82 % 1021,7 hPa 0,0 mm O-NO 74 6,4 km/h (2 Bft)
01.06.2020 09:00 13,7 C 78 % 1021,7 hPa 0,0 mm O 97 4,8 km/h (1 Bft)
01.06.2020 09:05 14,1 C 79 % 1021,7 hPa 0,0 mm O-SO 112 4,8 km/h (1 Bft)
01.06.2020 09:10 13,8 C 77 % 1021,7 hPa 0,0 mm O 94 4,8 km/h (1 Bft)
01.06.2020 09:15 13,8 C 77 % 1021,7 hPa 0,0 mm O-SO 118 6,4 km/h (2 Bft)
01.06.2020 09:20 14,1 C 76 % 1021,6 hPa 0,0 mm SO 130 6,4 km/h (2 Bft)
01.06.2020 09:25 14,3 C 77 % 1021,6 hPa 0,0 mm O-SO 115 6,4 km/h (2 Bft)
01.06.2020 09:30 14,5 C 74 % 1021,6 hPa 0,0 mm O-SO 117 6,4 km/h (2 Bft)
01.06.2020 09:35 15,0 C 74 % 1021,5 hPa 0,0 mm O-SO 104 4,8 km/h (1 Bft)
01.06.2020 09:40 14,7 C 72 % 1021,6 hPa 0,0 mm O-SO 114 6,4 km/h (2 Bft)
01.06.2020 09:45 15,1 C 76 % 1021,5 hPa 0,0 mm O 80 11,3 km/h (2 Bft)
01.06.2020 09:50 15,1 C 75 % 1021,4 hPa 0,0 mm S-SW 205 6,4 km/h (2 Bft)
01.06.2020 09:55 15,1 C 74 % 1021,4 hPa 0,0 mm S-SO 163 8,0 km/h (2 Bft)
01.06.2020 10:00 15,4 C 76 % 1021,4 hPa 0,0 mm O-SO 106 6,4 km/h (2 Bft)
01.06.2020 10:05 15,7 C 73 % 1021,3 hPa 0,0 mm S-SO 161 8,0 km/h (2 Bft)
01.06.2020 10:10 15,6 C 70 % 1021,3 hPa 0,0 mm S-SO 152 6,4 km/h (2 Bft)
01.06.2020 10:15 15,7 C 71 % 1021,3 hPa 0,0 mm SO 144 6,4 km/h (2 Bft)
01.06.2020 10:20 15,8 C 72 % 1021,3 hPa 0,0 mm SO 144 8,0 km/h (2 Bft)
01.06.2020 10:25 15,8 C 72 % 1021,3 hPa 0,0 mm SO 128 4,8 km/h (1 Bft)
01.06.2020 10:30 16,3 C 72 % 1021,3 hPa 0,0 mm SO 136 3,2 km/h (1 Bft)
01.06.2020 10:35 16,2 C 72 % 1021,3 hPa 0,0 mm SO 132 8,0 km/h (2 Bft)
01.06.2020 10:40 16,3 C 70 % 1021,3 hPa 0,0 mm NO 49 4,8 km/h (1 Bft)
01.06.2020 10:45 16,5 C 71 % 1021,3 hPa 0,0 mm S-SO 161 6,4 km/h (2 Bft)
01.06.2020 10:50 16,7 C 69 % 1021,3 hPa 0,0 mm S-SO 150 6,4 km/h (2 Bft)
01.06.2020 10:55 17,0 C 71 % 1021,2 hPa 0,0 mm O-SO 103 9,7 km/h (2 Bft)
01.06.2020 11:00 16,8 C 70 % 1021,2 hPa 0,0 mm S-SO 157 8,0 km/h (2 Bft)
01.06.2020 11:05 16,5 C 67 % 1021,1 hPa 0,0 mm S-SO 153 8,0 km/h (2 Bft)
01.06.2020 11:10 16,4 C 69 % 1021,2 hPa 0,0 mm O 80 8,0 km/h (2 Bft)
01.06.2020 11:15 16,7 C 67 % 1021,2 hPa 0,0 mm O 80 1,6 km/h (1 Bft)
01.06.2020 11:20 16,4 C 73 % 1021,2 hPa 0,0 mm O 80 8,0 km/h (2 Bft)
01.06.2020 11:25 16,1 C 71 % 1021,2 hPa 0,0 mm O 84 9,7 km/h (2 Bft)
01.06.2020 11:30 16,1 C 72 % 1021,2 hPa 0,0 mm O-NO 69 8,0 km/h (2 Bft)
01.06.2020 11:35 16,1 C 74 % 1021,1 hPa 0,0 mm O 80 6,4 km/h (2 Bft)
01.06.2020 11:40 16,1 C 74 % 1021,2 hPa 0,0 mm O 85 4,8 km/h (1 Bft)
01.06.2020 11:45 16,2 C 75 % 1021,1 hPa 0,0 mm O-NO 75 4,8 km/h (1 Bft)
01.06.2020 11:50 16,3 C 74 % 1021,1 hPa 0,0 mm O 94 6,4 km/h (2 Bft)
01.06.2020 11:55 16,3 C 72 % 1021,1 hPa 0,0 mm SO 138 8,0 km/h (2 Bft)
01.06.2020 12:00 16,3 C 73 % 1021,1 hPa 0,0 mm O 83 8,0 km/h (2 Bft)
01.06.2020 12:05 16,3 C 73 % 1021,0 hPa 0,0 mm O-NO 78 8,0 km/h (2 Bft)
01.06.2020 12:10 16,3 C 72 % 1021,0 hPa 0,0 mm O-NO 78 6,4 km/h (2 Bft)
01.06.2020 12:15 16,4 C 73 % 1021,0 hPa 0,0 mm O 87 8,0 km/h (2 Bft)
01.06.2020 12:20 16,6 C 72 % 1020,9 hPa 0,0 mm O 87 3,2 km/h (1 Bft)
01.06.2020 12:25 16,7 C 68 % 1020,9 hPa 0,0 mm O 87 3,2 km/h (1 Bft)
01.06.2020 12:30 16,7 C 69 % 1020,8 hPa 0,0 mm O 87 4,8 km/h (1 Bft)
01.06.2020 12:35 16,8 C 69 % 1020,9 hPa 0,0 mm S-SO 158 8,0 km/h (2 Bft)
01.06.2020 12:40 16,9 C 70 % 1020,8 hPa 0,0 mm S-SO 150 9,7 km/h (2 Bft)
01.06.2020 12:45 17,0 C 67 % 1020,8 hPa 0,0 mm O 86 8,0 km/h (2 Bft)
01.06.2020 12:50 17,2 C 68 % 1020,7 hPa 0,0 mm O-NO 70 6,4 km/h (2 Bft)
01.06.2020 12:55 17,8 C 65 % 1020,6 hPa 0,0 mm O-NO 58 8,0 km/h (2 Bft)
01.06.2020 13:00 17,8 C 60 % 1020,6 hPa 0,0 mm N-NO 13 8,0 km/h (2 Bft)
01.06.2020 13:05 17,6 C 62 % 1020,6 hPa 0,0 mm O-SO 111 6,4 km/h (2 Bft)
01.06.2020 13:10 18,3 C 62 % 1020,6 hPa 0,0 mm O 84 11,3 km/h (2 Bft)
01.06.2020 13:15 18,3 C 65 % 1020,5 hPa 0,0 mm NO 46 9,7 km/h (2 Bft)
01.06.2020 13:20 18,1 C 65 % 1020,6 hPa 0,0 mm NO 36 12,9 km/h (3 Bft)
01.06.2020 13:25 18,2 C 67 % 1020,6 hPa 0,0 mm O-SO 109 14,5 km/h (3 Bft)
01.06.2020 13:30 18,2 C 64 % 1020,6 hPa 0,0 mm NO 35 11,3 km/h (2 Bft)
01.06.2020 13:35 18,5 C 62 % 1020,6 hPa 0,0 mm N 5 8,0 km/h (2 Bft)
01.06.2020 13:40 18,8 C 65 % 1020,5 hPa 0,0 mm O-SO 116 8,0 km/h (2 Bft)
01.06.2020 13:45 18,9 C 65 % 1020,4 hPa 0,0 mm NO 46 14,5 km/h (3 Bft)
01.06.2020 13:50 18,3 C 62 % 1020,4 hPa 0,0 mm O-NO 68 14,5 km/h (3 Bft)
01.06.2020 13:55 18,0 C 63 % 1020,3 hPa 0,0 mm NO 37 8,0 km/h (2 Bft)
01.06.2020 14:00 17,8 C 64 % 1020,3 hPa 0,0 mm O-NO 64 11,3 km/h (2 Bft)
01.06.2020 14:05 17,8 C 64 % 1020,3 hPa 0,0 mm SO 139 6,4 km/h (2 Bft)
01.06.2020 14:10 18,3 C 65 % 1020,3 hPa 0,0 mm SO 134 6,4 km/h (2 Bft)
01.06.2020 14:15 18,4 C 62 % 1020,2 hPa 0,0 mm SO 140 8,0 km/h (2 Bft)
01.06.2020 14:20 19,0 C 59 % 1020,1 hPa 0,0 mm NW 313 6,4 km/h (2 Bft)
01.06.2020 14:25 19,6 C 58 % 1020,0 hPa 0,0 mm W 274 8,0 km/h (2 Bft)
01.06.2020 14:30 19,3 C 62 % 1020,0 hPa 0,0 mm O-SO 107 8,0 km/h (2 Bft)
01.06.2020 14:35 19,2 C 64 % 1019,9 hPa 0,0 mm O-NO 75 12,9 km/h (3 Bft)
01.06.2020 14:40 19,1 C 57 % 1019,9 hPa 0,0 mm SO 139 9,7 km/h (2 Bft)
01.06.2020 14:45 19,2 C 55 % 1019,9 hPa 0,0 mm O-NO 59 8,0 km/h (2 Bft)
01.06.2020 14:50 19,8 C 54 % 1019,8 hPa 0,0 mm NO 56 6,4 km/h (2 Bft)
01.06.2020 14:55 19,9 C 58 % 1019,8 hPa 0,0 mm N-NO 26 11,3 km/h (2 Bft)
01.06.2020 15:00 19,0 C 56 % 1019,8 hPa 0,0 mm O 95 12,9 km/h (3 Bft)
01.06.2020 15:05 18,8 C 60 % 1019,8 hPa 0,0 mm O-SO 113 8,0 km/h (2 Bft)
01.06.2020 15:10 19,0 C 58 % 1019,8 hPa 0,0 mm O-SO 119 6,4 km/h (2 Bft)
01.06.2020 15:15 18,3 C 61 % 1019,8 hPa 0,0 mm O 82 11,3 km/h (2 Bft)
01.06.2020 15:20 18,8 C 59 % 1019,7 hPa 0,0 mm O-SO 103 8,0 km/h (2 Bft)
01.06.2020 15:25 19,3 C 59 % 1019,6 hPa 0,0 mm O 101 4,8 km/h (1 Bft)
01.06.2020 15:30 19,7 C 61 % 1019,6 hPa 0,0 mm O-SO 103 9,7 km/h (2 Bft)
01.06.2020 15:35 19,6 C 58 % 1019,6 hPa 0,0 mm O 92 8,0 km/h (2 Bft)
01.06.2020 15:40 19,9 C 60 % 1019,4 hPa 0,0 mm O-SO 111 14,5 km/h (3 Bft)
01.06.2020 15:45 19,8 C 59 % 1019,5 hPa 0,0 mm NO 46 8,0 km/h (2 Bft)
01.06.2020 15:50 19,7 C 56 % 1019,5 hPa 0,0 mm O 86 12,9 km/h (3 Bft)
01.06.2020 15:55 19,3 C 54 % 1019,4 hPa 0,0 mm O 101 4,8 km/h (1 Bft)
01.06.2020 16:00 19,6 C 60 % 1019,3 hPa 0,0 mm SO 137 12,9 km/h (3 Bft)
01.06.2020 16:05 19,2 C 59 % 1019,4 hPa 0,0 mm NO 47 16,1 km/h (3 Bft)
01.06.2020 16:10 18,9 C 62 % 1019,4 hPa 0,0 mm O 80 11,3 km/h (2 Bft)
01.06.2020 16:15 18,5 C 61 % 1019,4 hPa 0,0 mm O 98 12,9 km/h (3 Bft)
01.06.2020 16:20 18,4 C 62 % 1019,4 hPa 0,0 mm O 83 14,5 km/h (3 Bft)
01.06.2020 16:25 18,8 C 64 % 1019,4 hPa 0,0 mm O-NO 78 12,9 km/h (3 Bft)
01.06.2020 16:30 19,6 C 55 % 1019,4 hPa 0,0 mm N 351 12,9 km/h (3 Bft)
01.06.2020 16:35 20,2 C 55 % 1019,4 hPa 0,0 mm O 84 11,3 km/h (2 Bft)
01.06.2020 16:40 20,2 C 56 % 1019,3 hPa 0,0 mm O 96 9,7 km/h (2 Bft)
01.06.2020 16:45 19,8 C 55 % 1019,3 hPa 0,0 mm O-NO 62 14,5 km/h (3 Bft)
01.06.2020 16:50 19,9 C 59 % 1019,2 hPa 0,0 mm O 88 14,5 km/h (3 Bft)
01.06.2020 16:55 19,6 C 56 % 1019,1 hPa 0,0 mm NO 37 12,9 km/h (3 Bft)
01.06.2020 17:00 19,2 C 59 % 1019,2 hPa 0,0 mm O 80 11,3 km/h (2 Bft)
01.06.2020 17:05 18,7 C 60 % 1019,1 hPa 0,0 mm O 96 11,3 km/h (2 Bft)
01.06.2020 17:10 18,2 C 60 % 1019,1 hPa 0,0 mm O 96 4,8 km/h (1 Bft)
01.06.2020 17:15 18,7 C 55 % 1019,1 hPa 0,0 mm O-NO 74 4,8 km/h (1 Bft)
01.06.2020 17:20 19,2 C 55 % 1019,0 hPa 0,0 mm O-NO 74 1,6 km/h (1 Bft)
01.06.2020 17:25 19,3 C 56 % 1018,9 hPa 0,0 mm O-NO 76 4,8 km/h (1 Bft)
01.06.2020 17:30 20,3 C 54 % 1018,8 hPa 0,0 mm W 275 6,4 km/h (2 Bft)
01.06.2020 17:35 19,8 C 54 % 1018,8 hPa 0,0 mm O-SO 106 8,0 km/h (2 Bft)
01.06.2020 17:40 19,5 C 56 % 1018,8 hPa 0,0 mm NO 51 6,4 km/h (2 Bft)
01.06.2020 17:45 19,4 C 53 % 1018,8 hPa 0,0 mm O 84 4,8 km/h (1 Bft)
01.06.2020 17:50 19,6 C 57 % 1018,7 hPa 0,0 mm O-SO 103 12,9 km/h (3 Bft)
01.06.2020 17:55 19,4 C 57 % 1018,6 hPa 0,0 mm O 93 8,0 km/h (2 Bft)
01.06.2020 18:00 19,4 C 58 % 1018,6 hPa 0,0 mm NO 46 11,3 km/h (2 Bft)
01.06.2020 18:05 19,3 C 56 % 1018,6 hPa 0,0 mm O-SO 115 14,5 km/h (3 Bft)
01.06.2020 18:10 19,3 C 57 % 1018,7 hPa 0,0 mm O-SO 103 8,0 km/h (2 Bft)
01.06.2020 18:15 19,3 C 59 % 1018,6 hPa 0,0 mm O 81 9,7 km/h (2 Bft)
01.06.2020 18:20 19,2 C 57 % 1018,6 hPa 0,0 mm O 98 9,7 km/h (2 Bft)
01.06.2020 18:25 19,2 C 58 % 1018,6 hPa 0,0 mm O-NO 66 12,9 km/h (3 Bft)
01.06.2020 18:30 18,9 C 58 % 1018,6 hPa 0,0 mm O-NO 70 11,3 km/h (2 Bft)
01.06.2020 18:35 18,6 C 57 % 1018,6 hPa 0,0 mm O-NO 70 4,8 km/h (1 Bft)
01.06.2020 18:40 18,4 C 57 % 1018,5 hPa 0,0 mm O-NO 70 4,8 km/h (1 Bft)
01.06.2020 18:45 18,3 C 59 % 1018,5 hPa 0,0 mm O-NO 70 3,2 km/h (1 Bft)
01.06.2020 18:50 18,1 C 61 % 1018,6 hPa 0,0 mm O-NO 70 3,2 km/h (1 Bft)
01.06.2020 18:55 17,8 C 63 % 1018,5 hPa 0,0 mm O-NO 70 1,6 km/h (1 Bft)
01.06.2020 19:00 17,3 C 65 % 1018,5 hPa 0,0 mm O-NO 70 0,0 km/h (0 Bft)
01.06.2020 19:05 16,9 C 67 % 1018,6 hPa 0,0 mm O-NO 70 0,0 km/h (0 Bft)
01.06.2020 19:10 16,6 C 69 % 1018,5 hPa 0,0 mm O-NO 70 3,2 km/h (1 Bft)
01.06.2020 19:15 16,5 C 70 % 1018,6 hPa 0,0 mm O-NO 70 3,2 km/h (1 Bft)
01.06.2020 19:20 16,6 C 70 % 1018,5 hPa 0,0 mm O-NO 70 1,6 km/h (1 Bft)
01.06.2020 19:25 16,8 C 71 % 1018,5 hPa 0,0 mm O-NO 70 1,6 km/h (1 Bft)
01.06.2020 19:30 16,8 C 71 % 1018,5 hPa 0,0 mm O-NO 70 0,0 km/h (0 Bft)
01.06.2020 19:35 17,0 C 69 % 1018,5 hPa 0,0 mm O-NO 70 1,6 km/h (1 Bft)
01.06.2020 19:40 17,0 C 70 % 1018,5 hPa 0,0 mm O-NO 70 0,0 km/h (0 Bft)
01.06.2020 19:45 16,8 C 72 % 1018,5 hPa 0,0 mm O-NO 70 0,0 km/h (0 Bft)
01.06.2020 19:50 16,7 C 72 % 1018,4 hPa 0,0 mm O-NO 70 0,0 km/h (0 Bft)
01.06.2020 19:55 16,4 C 74 % 1018,5 hPa 0,0 mm O-NO 70 0,0 km/h (0 Bft)
01.06.2020 20:00 16,3 C 75 % 1018,4 hPa 0,0 mm O-NO 70 0,0 km/h (0 Bft)
01.06.2020 20:05 16,1 C 77 % 1018,5 hPa 0,0 mm O-NO 70 0,0 km/h (0 Bft)
01.06.2020 20:10 15,9 C 77 % 1018,5 hPa 0,0 mm O-NO 70 0,0 km/h (0 Bft)
01.06.2020 20:15 15,7 C 78 % 1018,5 hPa 0,0 mm O-NO 70 0,0 km/h (0 Bft)
01.06.2020 20:20 15,5 C 78 % 1018,5 hPa 0,0 mm O-NO 70 0,0 km/h (0 Bft)
01.06.2020 20:25 15,3 C 78 % 1018,4 hPa 0,0 mm O-NO 70 0,0 km/h (0 Bft)
01.06.2020 20:30 15,2 C 78 % 1018,5 hPa 0,0 mm O-NO 70 0,0 km/h (0 Bft)
01.06.2020 20:35 15,2 C 78 % 1018,5 hPa 0,0 mm O-NO 70 1,6 km/h (1 Bft)
01.06.2020 20:40 15,1 C 79 % 1018,5 hPa 0,0 mm O-NO 70 0,0 km/h (0 Bft)
01.06.2020 20:45 15,2 C 79 % 1018,5 hPa 0,0 mm O-NO 70 1,6 km/h (1 Bft)
01.06.2020 20:50 15,1 C 78 % 1018,4 hPa 0,0 mm O-NO 70 0,0 km/h (0 Bft)
01.06.2020 20:55 15,1 C 78 % 1018,5 hPa 0,0 mm O-NO 70 0,0 km/h (0 Bft)
01.06.2020 21:00 15,0 C 78 % 1018,5 hPa 0,0 mm O-NO 70 1,6 km/h (1 Bft)
01.06.2020 21:05 14,8 C 78 % 1018,5 hPa 0,0 mm O-NO 70 1,6 km/h (1 Bft)
01.06.2020 21:10 14,8 C 78 % 1018,5 hPa 0,0 mm O-NO 70 0,0 km/h (0 Bft)
01.06.2020 21:15 14,7 C 78 % 1018,5 hPa 0,0 mm O-NO 70 0,0 km/h (0 Bft)
01.06.2020 21:20 14,6 C 78 % 1018,5 hPa 0,0 mm O-NO 70 0,0 km/h (0 Bft)
01.06.2020 21:25 14,5 C 78 % 1018,7 hPa 0,0 mm O-NO 70 0,0 km/h (0 Bft)
01.06.2020 21:30 14,4 C 78 % 1018,7 hPa 0,0 mm O-NO 70 0,0 km/h (0 Bft)
01.06.2020 21:35 14,3 C 78 % 1018,7 hPa 0,0 mm O-NO 70 0,0 km/h (0 Bft)
01.06.2020 21:40 14,2 C 78 % 1018,8 hPa 0,0 mm O-NO 70 0,0 km/h (0 Bft)
01.06.2020 21:45 14,0 C 79 % 1018,9 hPa 0,0 mm O-NO 70 0,0 km/h (0 Bft)
01.06.2020 21:50 13,9 C 79 % 1018,9 hPa 0,0 mm O-NO 70 1,6 km/h (1 Bft)
01.06.2020 21:55 13,8 C 79 % 1018,9 hPa 0,0 mm O-NO 70 0,0 km/h (0 Bft)
01.06.2020 22:00 13,6 C 79 % 1018,9 hPa 0,0 mm O-NO 70 0,0 km/h (0 Bft)
01.06.2020 22:05 13,4 C 79 % 1018,9 hPa 0,0 mm O-NO 70 0,0 km/h (0 Bft)
01.06.2020 22:10 13,3 C 80 % 1018,9 hPa 0,0 mm O-NO 70 0,0 km/h (0 Bft)
01.06.2020 22:15 13,2 C 80 % 1018,9 hPa 0,0 mm O-NO 70 3,2 km/h (1 Bft)
01.06.2020 22:20 13,1 C 80 % 1018,9 hPa 0,0 mm O-NO 70 0,0 km/h (0 Bft)
01.06.2020 22:25 12,9 C 80 % 1019,0 hPa 0,0 mm O-NO 70 0,0 km/h (0 Bft)
01.06.2020 22:30 12,8 C 81 % 1019,0 hPa 0,0 mm O-NO 70 0,0 km/h (0 Bft)
01.06.2020 22:35 12,7 C 80 % 1019,0 hPa 0,0 mm O-NO 70 0,0 km/h (0 Bft)
01.06.2020 22:40 12,6 C 81 % 1019,0 hPa 0,0 mm O-NO 70 0,0 km/h (0 Bft)
01.06.2020 22:45 12,3 C 80 % 1019,0 hPa 0,0 mm O-NO 70 0,0 km/h (0 Bft)
01.06.2020 22:50 12,1 C 81 % 1019,0 hPa 0,0 mm O-NO 70 0,0 km/h (0 Bft)
01.06.2020 22:55 11,9 C 81 % 1019,0 hPa 0,0 mm O-NO 70 1,6 km/h (1 Bft)
01.06.2020 23:00 11,8 C 81 % 1019,1 hPa 0,0 mm O-NO 70 0,0 km/h (0 Bft)
01.06.2020 23:05 11,6 C 81 % 1019,1 hPa 0,0 mm O-NO 70 0,0 km/h (0 Bft)
01.06.2020 23:10 11,5 C 82 % 1019,1 hPa 0,0 mm O-NO 70 3,2 km/h (1 Bft)
01.06.2020 23:15 11,3 C 82 % 1019,1 hPa 0,0 mm O-NO 70 0,0 km/h (0 Bft)
01.06.2020 23:20 11,3 C 82 % 1019,2 hPa 0,0 mm O-NO 70 0,0 km/h (0 Bft)
01.06.2020 23:25 11,1 C 83 % 1019,2 hPa 0,0 mm O-NO 70 0,0 km/h (0 Bft)
01.06.2020 23:30 11,0 C 83 % 1019,2 hPa 0,0 mm O-NO 70 0,0 km/h (0 Bft)
01.06.2020 23:35 10,9 C 83 % 1019,2 hPa 0,0 mm O-NO 70 0,0 km/h (0 Bft)
01.06.2020 23:40 10,8 C 83 % 1019,2 hPa 0,0 mm O-NO 70 0,0 km/h (0 Bft)
01.06.2020 23:45 10,6 C 84 % 1019,2 hPa 0,0 mm O-NO 70 0,0 km/h (0 Bft)
01.06.2020 23:50 10,5 C 84 % 1019,3 hPa 0,0 mm O-NO 70 0,0 km/h (0 Bft)
01.06.2020 23:55 10,4 C 84 % 1019,3 hPa 0,0 mm O-NO 70 0,0 km/h (0 Bft)
_ Min-Zeit 03:30 17:45 19:50 - - - 00:00
Minimum _ 9,3 C 53 % 1018,4 hPa - - - 0,0 km/h (0 Bft)
_ Max-Zeit 16:40 04:30 00:55 00:00 - - 16:05
Maximum _ 20,3 C 92 % 1022,8 hPa 0,2 mm - - 16,1 km/h
S-SO (3 Bft)
Durchschnitt _ 14,0 C 77 % 1020,5 hPa #0,2 mm O-NO - 3,9 km/h (1 Bft)